Location: Aranbee
(34.0885°N, 118.2342°W)
Time: 11:48:25
(UTC+00:00)

Tiros 1 - Pass Details

Date: 02 December 2020
Orbit: 630 x 663 km, 48.4° (Epoch: 21 January)

Event Time Altitude Azimuth Distance (km) Brightness Sun altitude
Rises 21:09:15 0° 234° (SW) 2,977 11.4 30.1°
Reaches altitude 10° 21:11:35 10° 236° (SW) 2,070 10.8 29.9°
Maximum altitude 21:16:23 77° 322° (NW) 681 7.7 29.5°
Drops below altitude 10° 21:21:11 10° 49° (NE) 2,079 9.3 29.1°
Sets 21:23:33 0° 51° (NE) 2,992 10.1 28.9°
